Regional Weather Roundup
Issued by NWS Newport/Morehead, NC

Current Version | Previous Version | Graphics & Text | Print | Product List | Glossary Off
Versions: 1 2 3 4 5 6 7 8 9 10 11 12 13 14 15 16 17 18 19 20 21 22 23 24 25 26 27 28 29 30 31 32 33 34 35 36 37 38 39 40 41 42 43 44 45 46 47 48 49 50

000
ASUS42 KMHX 221522
RWRMHX
WEATHER ROUNDUP FOR EASTERN NORTH CAROLINA
NATIONAL WEATHER SERVICE NEWPORT/MOREHEAD CITY NC
1100 AM EDT TUE APR 22 2014

NOTE: "FAIR" INDICATES FEW OR NO CLOUDS BELOW 12,000 FEET
WITH NO SIGNIFICANT WEATHER AND/OR OBSTRUCTIONS TO VISIBILITY

NCZ015>017-031-032-045>047-102-103-221600-
NORTH COAST

CITY           SKY/WX    TMP DP  RH WIND       PRES   REMARKS
EDENTON        SUNNY     67  56  66 SW7       29.79F
ELIZABETH CITY SUNNY     68  52  56 S9        29.78F
KITTY HAWK     SUNNY     66  50  55 S3        29.79F
MANTEO         SUNNY     64  51  64 S8        29.80F

$$

NCZ045>047-081-094-103-104-221600-
CENTRAL COAST

CITY           SKY/WX    TMP DP  RH WIND       PRES   REMARKS
FRISCO         SUNNY     59  32  36 SW8       29.83F
SWANQUARTER      N/A     64 N/A N/A S6G12     29.79S

$$

NCZ095-097-098-100-101-221600-
SOUTHERN COAST

CITY           SKY/WX    TMP DP  RH WIND       PRES   REMARKS
BEAUFORT       SUNNY     66  59  78 W12       29.83F
CEDAR ISLAND     N/A     72 N/A N/A SW10      29.85F
JACKSONVILLE   SUNNY     72  49  44 SW9       29.82F
NEWPORT          N/A     72  57  60 S7G13       N/A
PINEY ISLAND   SUNNY     74  58  57 W9        29.82F
WILMINGTON     SUNNY     75  48  38 SW10      29.84F


$$

NCZ011>013-027>030-043-044-078>080-089-090>093-098-221600-
COASTAL PLAIN

CITY           SKY/WX    TMP DP  RH WIND       PRES   REMARKS
AHOSKIE        MOSUNNY   71  48  43 S5        29.77F
CLINTON        MOSUNNY   73  50  44 SW9       29.82F
ELIZABETHTOWN  SUNNY     71  47  43 SW8       29.83F
GOLDSBORO      PTSUNNY   73  48  41 SW13      29.79F
GREENVILLE     MOSUNNY   72  46  40 SW12G20   29.82F
HAVELOCK       MOSUNNY   72  55  55 SW13      29.83F
KENANSVILLE    MOSUNNY   70  43  37 SW5       29.82F
KINSTON        MOSUNNY   72  46  40 SW13      29.81F
NEW BERN       SUNNY     74  55  51 SW9G16    29.82F
RICHLANDS      SUNNY     73  72  94 SW10      29.83S
ROANOKE RAPIDS NOT AVBL
ROCKY MOUNT    MOSUNNY   72  50  45 SW12      29.78F
WASHINGTON     SUNNY     73  51  45 SW10      29.80F
WHITEVILLE     SUNNY     73  48  40 SW9       29.84S

$$

AMZ130-135-150-152-154-156-158-170-250-252-270-ANZ085-086-088-633-658-670-221600-
MARINE OBSERVATIONS

STATION/POSITION TIME  TEMP    WIND        PRES    WAVE   SWELL
                       AIR SEA DIR/SP/G            HT/PER HT/PER
                 (UTC) (F)     (DEG/KT/KT) (MB)    (FT/S) (FT/S)
CHESAPEAKE LIGHT 1500   51     190/ 15/ 15 1008.4
BUOY 44014       1500   47 49  200/  6/  6 1008.8    5/ 9   5/ 9
DUCK             1500   61 49  200/  8/ 10 1007.9
2E DUCK          1500      52                N/A     4/ 9   2/11
OREGON INLET     1500   56 52  190/ 10/ 11 1009.4
BUOY 44095       1500      49                N/A     4/ 9   2/11
HATTERAS CG      1500   62 54  210/  7/ 10 1010.1
DIAMOND BUOY     1500   67 76  260/ 12/ 16 1009.8    6/ 8   5/ 8
CAPE LOOKOUT     1500   66     220/ 10/ 13 1010.2
BEAUFORT LAB     1500   65 58  230/  6/  9 1009.7
30 SE NEW RIVER  1500   67 71  250/ 16/ 17 1011.0    4/ 9   3/ 9
5 SE WRIGHTSVILL 1500   62 60  200/  8/ 10 1010.5
FRYING PAN BUOY  1500   67 67  250/ 16/ 17 1010.9    4/10   3/10
BUOY 41001       NOT AVBL
BUOY 41002       NOT AVBL
BUOY 41004       NOT AVBL

$$



USA.gov is the U.S. government's official web portal to all federal, state and local government web resources and services.